• In Czech Republic
  • List of Countries
  • For 7 days
  • Water Temperature
  • Satellite Maps
  • Weather Map
  • Weather Widgets
  • user-avatar
    Login

    Hourly Weather Badajoz

    Today, 17 August, Friday

    Time Temperature Precipitation Wind Pressure Humidity
    00:00 +24°C° 0 mm 2 mps 746 mmHg 58%
    01:00 +23°C° 0 mm 2 mps 746 mmHg 61%
    02:00 +21°C° 0 mm 2 mps 745 mmHg 65%
    03:00 +22°C° 0 mm 1 mps 745 mmHg 68%
    04:00 +21°C° 0 mm 1 mps 746 mmHg 71%
    05:00 +21°C° 0 mm 1 mps 746 mmHg 73%
    06:00 +21°C° 0 mm 1 mps 746 mmHg 70%
    07:00 +23°C° 0 mm 1 mps 746 mmHg 61%
    08:00 +26°C° 0 mm 1 mps 746 mmHg 52%
    09:00 +28°C° 0 mm 1 mps 746 mmHg 44%
    10:00 +30°C° 0 mm 1 mps 746 mmHg 37%
    11:00 +33°C° 0 mm 1 mps 746 mmHg 30%
    12:00 +36°C° 0 mm 2 mps 746 mmHg 23%
    13:00 +37°C° 0 mm 2 mps 745 mmHg 22%
    14:00 +38°C° 0 mm 2 mps 745 mmHg 20%
    15:00 +38°C° 0 mm 2 mps 745 mmHg 18%
    16:00 +38°C° 0 mm 2 mps 744 mmHg 18%
    17:00 +38°C° 0 mm 2 mps 744 mmHg 18%
    18:00 +37°C° 0 mm 2 mps 744 mmHg 18%
    19:00 +35°C° 0 mm 2 mps 744 mmHg 21%
    20:00 +32°C° 0 mm 2 mps 745 mmHg 24%
    21:00 +30°C° 0 mm 1 mps 745 mmHg 27%
    22:00 +29°C° 0 mm 1 mps 745 mmHg 30%
    23:00 +28°C° 0 mm 1 mps 745 mmHg 34%

    Tomorrow, 18 August, Saturday

    Time Temperature Precipitation Wind Pressure Humidity
    00:00 +27°C° 0 mm 1 mps 745 mmHg 37%
    01:00 +26°C° 0 mm 2 mps 745 mmHg 39%
    02:00 +26°C° 0 mm 2 mps 745 mmHg 41%
    03:00 +25°C° 0 mm 2 mps 745 mmHg 43%
    04:00 +25°C° 0 mm 2 mps 745 mmHg 44%
    05:00 +25°C° 0 mm 2 mps 745 mmHg 45%
    06:00 +24°C° 0 mm 2 mps 745 mmHg 47%
    07:00 +27°C° 0 mm 2 mps 746 mmHg 42%
    08:00 +29°C° 0 mm 3 mps 746 mmHg 38%
    09:00 +31°C° 0 mm 3 mps 746 mmHg 34%
    10:00 +34°C° 0 mm 3 mps 746 mmHg 30%
    11:00 +36°C° 0 mm 2 mps 746 mmHg 26%
    12:00 +38°C° 0 mm 2 mps 746 mmHg 22%
    13:00 +39°C° 0 mm 2 mps 745 mmHg 20%
    14:00 +39°C° 0 mm 2 mps 745 mmHg 19%
    15:00 +40°C° 0 mm 2 mps 744 mmHg 17%
    16:00 +40°C° 0 mm 2 mps 744 mmHg 17%
    17:00 +39°C° 0 mm 2 mps 744 mmHg 17%
    18:00 +39°C° 0 mm 2 mps 744 mmHg 18%
    19:00 +37°C° 0 mm 2 mps 744 mmHg 20%
    20:00 +35°C° 0 mm 2 mps 745 mmHg 23%
    21:00 +32°C° 0 mm 2 mps 745 mmHg 25%
    22:00 +31°C° 0 mm 2 mps 745 mmHg 26%
    23:00 +30°C° 0 mm 2 mps 745 mmHg 27%

    Day after tomorrow, 19 August, Sunday

    Time Temperature Precipitation Wind Pressure Humidity
    00:00 +29°C° 0 mm 2 mps 745 mmHg 28%
    01:00 +29°C° 0 mm 2 mps 745 mmHg 29%
    02:00 +28°C° 0 mm 2 mps 745 mmHg 31%
    03:00 +27°C° 0 mm 2 mps 745 mmHg 33%
    04:00 +27°C° 0 mm 2 mps 745 mmHg 37%
    05:00 +26°C° 0 mm 2 mps 745 mmHg 40%
    06:00 +26°C° 0 mm 2 mps 745 mmHg 44%
    07:00 +28°C° 0 mm 2 mps 746 mmHg 41%
    08:00 +30°C° 0 mm 2 mps 746 mmHg 37%
    09:00 +34°C° 0 mm 2 mps 746 mmHg 34%
    10:00 +36°C° 0 mm 2 mps 746 mmHg 30%
    11:00 +38°C° 0 mm 2 mps 746 mmHg 25%
    12:00 +40°C° 0 mm 1 mps 746 mmHg 21%
    13:00 +41°C° 0 mm 1 mps 745 mmHg 20%
    14:00 +41°C° 0 mm 1 mps 745 mmHg 18%
    15:00 +39°C° 0 mm 0 mps 745 mmHg 17%
    16:00 +41°C° 0 mm 1 mps 745 mmHg 17%
    17:00 +41°C° 0 mm 1 mps 744 mmHg 17%
    18:00 +40°C° 0 mm 1 mps 744 mmHg 18%
    19:00 +39°C° 0 mm 1 mps 745 mmHg 20%
    20:00 +37°C° 0 mm 2 mps 745 mmHg 22%
    21:00 +35°C° 0 mm 2 mps 745 mmHg 24%
    22:00 +34°C° 0 mm 2 mps 745 mmHg 27%
    23:00 +32°C° 0 mm 2 mps 745 mmHg 29%

    20 August, Monday

    Time Temperature Precipitation Wind Pressure Humidity
    00:00 +31°C° 0 mm 2 mps 745 mmHg 32%
    01:00 +30°C° 0 mm 2 mps 745 mmHg 33%
    02:00 +29°C° 0 mm 2 mps 745 mmHg 35%
    03:00 +29°C° 0 mm 2 mps 745 mmHg 36%
    04:00 +28°C° 0 mm 2 mps 745 mmHg 38%
    05:00 +28°C° 0 mm 2 mps 745 mmHg 40%
    06:00 +27°C° 0 mm 1 mps 745 mmHg 41%
    07:00 +29°C° 0 mm 2 mps 746 mmHg 38%
    08:00 +31°C° 0 mm 2 mps 746 mmHg 35%
    09:00 +34°C° 0 mm 2 mps 746 mmHg 32%
    10:00 +36°C° 0 mm 2 mps 746 mmHg 29%
    11:00 +38°C° 0 mm 2 mps 746 mmHg 26%
    12:00 +40°C° 0 mm 2 mps 746 mmHg 23%
    13:00 +40°C° 0 mm 2 mps 745 mmHg 21%
    14:00 +40°C° 0 mm 2 mps 745 mmHg 20%
    15:00 +41°C° 0 mm 1 mps 745 mmHg 19%
    16:00 +40°C° 0 mm 2 mps 744 mmHg 20%
    17:00 +40°C° 0 mm 2 mps 744 mmHg 21%
    18:00 +39°C° 0 mm 2 mps 744 mmHg 22%
    19:00 +38°C° 0 mm 2 mps 745 mmHg 24%
    20:00 +36°C° 0 mm 2 mps 745 mmHg 26%
    21:00 +35°C° 0 mm 2 mps 745 mmHg 29%
    22:00 +34°C° 0 mm 2 mps 745 mmHg 30%
    23:00 +32°C° 0 mm 2 mps 745 mmHg 32%

    21 August, Tuesday

    Time Temperature Precipitation Wind Pressure Humidity
    00:00 +31°C° 0 mm 1 mps 745 mmHg 33%
    01:00 +30°C° 0 mm 1 mps 745 mmHg 35%
    02:00 +29°C° 0 mm 1 mps 745 mmHg 37%
    03:00 +29°C° 0 mm 1 mps 745 mmHg 38%
    04:00 +28°C° 0 mm 1 mps 745 mmHg 41%
    05:00 +27°C° 0 mm 1 mps 745 mmHg 43%
    06:00 +26°C° 0 mm 1 mps 745 mmHg 45%
    07:00 +28°C° 0 mm 1 mps 746 mmHg 41%
    08:00 +30°C° 0 mm 1 mps 746 mmHg 37%
    09:00 +32°C° 0 mm 1 mps 746 mmHg 33%
    10:00 +34°C° 0 mm 1 mps 746 mmHg 30%
    11:00 +37°C° 0 mm 2 mps 745 mmHg 26%
    12:00 +39°C° 0 mm 2 mps 745 mmHg 22%
    13:00 +40°C° 0 mm 2 mps 745 mmHg 20%
    14:00 +41°C° 0 mm 2 mps 744 mmHg 18%
    15:00 +41°C° 0 mm 2 mps 744 mmHg 17%
    16:00 +40°C° 0 mm 2 mps 744 mmHg 17%
    17:00 +40°C° 0 mm 1 mps 744 mmHg 18%
    18:00 +39°C° 0 mm 1 mps 743 mmHg 19%
    19:00 +36°C° 0 mm 1 mps 744 mmHg 21%
    20:00 +36°C° 0 mm 2 mps 744 mmHg 23%
    21:00 +35°C° 0 mm 2 mps 744 mmHg 25%
    22:00 +32°C° 0 mm 2 mps 744 mmHg 27%
    23:00 +31°C° 0 mm 2 mps 744 mmHg 30%

    22 August, Wednesday

    Time Temperature Precipitation Wind Pressure Humidity
    00:00 +30°C° 0 mm 2 mps 744 mmHg 32%
    01:00 +29°C° 0 mm 2 mps 744 mmHg 34%
    02:00 +28°C° 0 mm 2 mps 744 mmHg 37%
    03:00 +27°C° 0 mm 1 mps 744 mmHg 39%
    04:00 +27°C° 0 mm 1 mps 744 mmHg 41%
    05:00 +26°C° 0 mm 1 mps 744 mmHg 43%
    06:00 +26°C° 0 mm 1 mps 744 mmHg 45%
    07:00 +28°C° 0 mm 1 mps 745 mmHg 42%
    08:00 +29°C° 0 mm 1 mps 745 mmHg 38%
    09:00 +31°C° 0 mm 1 mps 745 mmHg 35%
    10:00 +33°C° 0 mm 1 mps 745 mmHg 31%
    11:00 +35°C° 0 mm 1 mps 745 mmHg 27%
    12:00 +37°C° 0 mm 1 mps 745 mmHg 23%
    13:00 +39°C° 0 mm 1 mps 745 mmHg 21%
    14:00 +40°C° 0 mm 1 mps 744 mmHg 18%
    15:00 +41°C° 0 mm 1 mps 744 mmHg 16%
    16:00 +41°C° 0 mm 1 mps 744 mmHg 16%
    17:00 +40°C° 0 mm 2 mps 744 mmHg 16%
    18:00 +40°C° 0 mm 2 mps 744 mmHg 16%
    19:00 +38°C° 0 mm 2 mps 744 mmHg 19%
    20:00 +36°C° 0 mm 2 mps 744 mmHg 22%
    21:00 +34°C° 0 mm 3 mps 745 mmHg 25%
    22:00 +32°C° 0 mm 2 mps 745 mmHg 27%
    23:00 +31°C° 0 mm 2 mps 745 mmHg 30%
    Show more